Flag for Norway Weather past 2 weeks in Stjørdal, Norway

Now
38 °F

Rain showers. Clear.


Feels Like: 33 °F
Forecast: 28 / 33 °F
Wind: 7 mph from Southeast

Location: Trondheim / Vaernes

Current Time: Jan 26, 2015 at 12:06:55 AM

Latest Report: Jan 25, 2015 at 11:00 PM


Visibility: 10 mi

Pressure: 29.61 "Hg

Humidity: 72%

Dew point: 29 °F

Location of StjørdalLocation

Historic Weather in Stjørdal — Graph

°F

Stjørdal temperature yesterday

Maximum temperature yesterday: 39 °F (at 9:00 PM)
Minimum temperature yesterday: 23 °F (at 10:00 AM)
Average temperature yesterday: 31 °F

Past Weeks' High & Low Weather Summary

 TemperatureHumidityPressure
High41 °F (Jan 16, 2:00 PM)93% (Jan 25, 7:00 AM)30.31 "Hg (Jan 25, 7:00 AM)
Low13 °F (Jan 23, 7:00 AM)45% (Jan 25, 6:00 PM)28.67 "Hg (Jan 13, 12:00 AM)
Average30 °F65%29.49 "Hg
* Reported Jan 10 9:00 PM — Jan 25 9:00 PM, Stjørdal, Weather by CustomWeather, © 2014

Note: Actual official high and low records may vary slightly from our data, if they occured in-between our weather recording intervals... More about our weather records

Advertising

Stjørdal weather history for previous 24 hours

 ConditionsComfort  
Time TempWeatherWind HumidityBarometerVisibility
9:00 PM
Jan 25
39 °FOvercast.7 mph57%29.66 "Hg31 mi
8:00 PM37 °FOvercast.5 mph57%29.70 "Hg31 mi
7:00 PM37 °FPassing clouds.2 mph49%29.75 "Hg31 mi
6:00 PM36 °FPassing clouds.9 mph45%29.78 "Hg31 mi
5:00 PM35 °FPassing clouds.2 mph50%29.82 "Hg31 mi
4:00 PM35 °FChilly.7 mph49%29.85 "Hg31 mi
3:00 PM34 °FOvercast.2 mph51%29.88 "Hg31 mi
2:00 PM32 °FOvercast.5 mph63%29.91 "Hg28 mi
1:00 PM30 °FChilly.2 mph70%29.94 "Hg25 mi
12:00 PM24 °FSunny.3 mph84%29.96 "Hg22 mi
11:00 AM23 °FSunny.3 mph89%29.98 "Hg22 mi
10:00 AM23 °FSunny.3 mph92%29.97 "Hg22 mi
9:00 AM24 °FPassing clouds.3 mph90%29.97 "Hg22 mi
8:00 AM25 °FOvercast.3 mph92%29.96 "Hg22 mi
7:00 AM25 °FOvercast.3 mph93%29.95 "Hg22 mi
6:00 AM26 °FClear.2 mph91%29.93 "Hg22 mi
5:00 AM30 °FPassing clouds.3 mph82%29.90 "Hg28 mi
3:00 AM34 °FPassing clouds.6 mph74%29.87 "Hg28 mi
2:00 AM34 °FClear.8 mph74%29.84 "Hg31 mi
1:00 AM34 °FClear.8 mph74%29.82 "Hg31 mi
12:00 AM33 °FSnow flurries. Passing clouds.6 mph86%29.79 "Hg25 mi
Weather by CustomWeather, © 2014

See weather overviewHow to use our weather pages